Weather History for Dare County Gunnery Range, NC

Change the Weather History Date:

Sunday, December 29, 2013

  Actual Average (KMQI) Record (KMQI)
Temperature  
Mean Temperature 55 °F -  
Max Temperature 66 °F 49 °F 71 °F (1992)
Min Temperature 44 °F 36 °F 24 °F (1977)
Degree Days  
Heating Degree Days 10    
Growing Degree Days 5 (Base 50)    
Moisture  
Dew Point 57 °F    
Average Humidity 86    
Maximum Humidity 96    
Minimum Humidity 68    
Precipitation  
Precipitation 0.12 in - - ()
Sea Level Pressure  
Sea Level Pressure 29.85 in    
Wind  
Wind Speed 14 mph (SSW)    
Max Wind Speed 26 mph    
Max Gust Speed 41 mph    
Visibility 11 miles    
Events Rain    
Averages and records for this station are not official NWS values.
T = Trace of Precipitation, MM = Missing Value Source: NWS Daily Summary

Daily Weather History Graph

Daily Weather History Graph

Search for Another Location

Airport:

Trip Planner

Search our weather history database for the weather conditions in past years. The results will help you decide how hot, cold, wet, or windy it might be!

Date:

Astronomy

Dec. 29, 2013 Rise Set
Actual Time 7:12 AM EST 4:59 PM EST
Civil Twilight 6:44 AM EST 5:27 PM EST
Nautical Twilight 6:12 AM EST 5:59 PM EST
Astronomical Twilight 5:41 AM EST 6:30 PM EST
Moon 3:56 AM EST 2:32 PM EST
Length of Visible Light 10h 43m
Length of Day
9h 46m
Waning Crescent, 11% of the Moon is Illuminated
Dec 29
Waning Crescent
Jan 1
New
Jan 7
First Quarter
Jan 15
Full
Jan 24
Last Quarter

Hourly Weather History & Observations

Time (EST) Temp. Windchill Dew Point Humidity Pressure Visibility Wind Dir Wind Speed Gust Speed Precip Events Conditions
12:56 AM 44.1 °F 42.5 °F 41.2 °F 90% 30.17 in 12.0 mi East 3.5 mph - N/A   Mostly Cloudy
1:56 AM 46.0 °F - 42.8 °F 88% 30.15 in 12.0 mi Variable 1.2 mph - N/A   Mostly Cloudy
2:56 AM 53.4 °F - 52.3 °F 96% 30.13 in 12.0 mi SSE 8.1 mph 13.8 mph N/A   Mostly Cloudy
3:56 AM 61.0 °F - 51.6 °F 71% 30.09 in 12.0 mi SSE 13.8 mph 20.7 mph N/A   Mostly Cloudy
4:56 AM 61.7 °F - 50.9 °F 68% 30.06 in 12.0 mi SSE 16.1 mph 23.0 mph N/A   Overcast
5:53 AM 62.6 °F - 51.8 °F 68% 30.03 in 12.0 mi SE 12.7 mph 23.0 mph N/A Rain Light Rain
5:56 AM 62.8 °F - 52.3 °F 69% 30.03 in 12.0 mi SSE 15.0 mph 23.0 mph N/A Rain Light Rain
6:37 AM 62.6 °F - 53.6 °F 72% 30.01 in 12.0 mi SE 13.8 mph 19.6 mph N/A   Mostly Cloudy
6:56 AM 62.8 °F - 54.3 °F 74% 30.00 in 12.0 mi SSE 15.0 mph 25.3 mph N/A   Overcast
7:56 AM 63.5 °F - 54.1 °F 72% 29.96 in 12.0 mi South 20.7 mph 28.8 mph N/A   Mostly Cloudy
8:04 AM 64.4 °F - 53.6 °F 68% 29.96 in 12.0 mi SSE 19.6 mph 29.9 mph N/A Rain Light Rain
8:56 AM 58.3 °F - 54.5 °F 87% 29.95 in 12.0 mi South 12.7 mph 23.0 mph N/A Rain Light Rain Showers
9:05 AM 59.0 °F - 55.4 °F 88% 29.94 in 12.0 mi South 15.0 mph - N/A   Overcast
9:56 AM 58.3 °F - 54.1 °F 86% 29.92 in 12.0 mi South 18.4 mph 24.2 mph N/A   Mostly Cloudy
10:00 AM 59.0 °F - 55.4 °F 88% 29.92 in 12.0 mi South 17.3 mph 24.2 mph N/A Rain Light Rain
10:30 AM 59.0 °F - 55.4 °F 88% 29.90 in 9.0 mi South 17.3 mph 21.9 mph N/A Rain Light Rain Showers
10:47 AM 59.0 °F - 55.4 °F 88% 29.89 in 8.0 mi South 16.1 mph 23.0 mph N/A Rain Light Rain Showers
10:56 AM 58.1 °F - 56.5 °F 94% 29.89 in 8.0 mi South 15.0 mph 23.0 mph 0.03 in Rain Light Rain Showers
11:43 AM 59.0 °F - 57.2 °F 94% 29.82 in 11.0 mi South 15.0 mph 24.2 mph N/A   Mostly Cloudy
11:51 AM 60.8 °F - 57.2 °F 88% 29.82 in 12.0 mi South 18.4 mph 25.3 mph N/A Rain Light Rain Showers
11:56 AM 61.0 °F - 58.3 °F 91% 29.81 in 12.0 mi South 16.1 mph 25.3 mph 0.01 in Rain Light Rain Showers
12:56 PM 63.3 °F - 60.3 °F 90% 29.76 in 7.0 mi South 24.2 mph 39.1 mph 0.05 in Rain Light Rain
1:12 PM 64.4 °F - 60.8 °F 88% 29.75 in 4.0 mi South 26.5 mph 41.4 mph N/A Rain Light Rain Showers
1:18 PM 64.4 °F - 60.8 °F 88% 29.75 in 5.0 mi South 24.2 mph 41.4 mph N/A Rain Light Rain Showers
1:39 PM 64.4 °F - 62.6 °F 94% 29.74 in 9.0 mi South 19.6 mph 36.8 mph N/A   Mostly Cloudy
1:51 PM 64.4 °F - 62.6 °F 94% 29.73 in 8.0 mi South 20.7 mph 35.7 mph N/A   Mostly Cloudy
1:56 PM 64.9 °F - 62.4 °F 92% 29.72 in 8.0 mi SSW 24.2 mph 38.0 mph 0.03 in   Mostly Cloudy
2:07 PM 66.2 °F - 62.6 °F 88% 29.72 in 8.0 mi South 25.3 mph 34.5 mph N/A   Mostly Cloudy
2:19 PM 66.2 °F - 62.6 °F 88% 29.72 in 7.0 mi SSW 21.9 mph 35.7 mph N/A   Mostly Cloudy
2:56 PM 65.5 °F - 62.6 °F 90% 29.71 in 8.0 mi SSW 20.7 mph 38.0 mph N/A   Mostly Cloudy
3:18 PM 64.4 °F - 60.8 °F 88% 29.70 in 12.0 mi SSW 24.2 mph 36.8 mph N/A   Mostly Cloudy
3:46 PM 66.2 °F - 62.6 °F 88% 29.70 in 12.0 mi SW 24.2 mph 32.2 mph N/A Rain Light Rain
3:56 PM 66.4 °F - 62.6 °F 88% 29.71 in 12.0 mi SW 25.3 mph 32.2 mph N/A Rain Light Rain Showers
4:04 PM 66.2 °F - 62.6 °F 88% 29.70 in 12.0 mi SW 18.4 mph 28.8 mph N/A   Mostly Cloudy
4:05 PM 66.2 °F - 62.6 °F 88% 29.70 in 12.0 mi SW 20.7 mph 28.8 mph N/A Rain Light Rain Showers
4:31 PM 66.2 °F - 62.6 °F 88% 29.71 in 12.0 mi SW 15.0 mph 24.2 mph N/A   Mostly Cloudy
4:56 PM 65.7 °F - 62.4 °F 89% 29.72 in 12.0 mi SW 16.1 mph 26.5 mph N/A   Scattered Clouds
5:53 PM 64.4 °F - 62.6 °F 94% 29.74 in 12.0 mi WSW 10.4 mph 17.3 mph N/A   Mostly Cloudy
5:56 PM 64.6 °F - 62.1 °F 92% 29.74 in 12.0 mi SW 9.2 mph 17.3 mph N/A   Mostly Cloudy
6:01 PM 64.4 °F - 62.6 °F 94% 29.74 in 12.0 mi SW 8.1 mph 19.6 mph N/A   Mostly Cloudy
6:31 PM 64.4 °F - 60.8 °F 88% 29.74 in 12.0 mi SW 12.7 mph 18.4 mph N/A   Mostly Cloudy
6:42 PM 64.4 °F - 60.8 °F 88% 29.76 in 12.0 mi WSW 11.5 mph 18.4 mph N/A   Mostly Cloudy
6:56 PM 63.9 °F - 60.8 °F 90% 29.77 in 12.0 mi West 10.4 mph 18.4 mph N/A   Mostly Cloudy
7:07 PM 62.6 °F - 59.0 °F 88% 29.78 in 12.0 mi West 13.8 mph 20.7 mph N/A   Mostly Cloudy
7:56 PM 60.3 °F - 52.2 °F 75% 29.82 in 12.0 mi West 13.8 mph 20.7 mph N/A   Overcast
8:56 PM 55.6 °F - 51.4 °F 86% 29.86 in 12.0 mi West 10.4 mph - N/A   Clear
9:56 PM 52.5 °F - 49.5 °F 89% 29.88 in 12.0 mi West 5.8 mph - N/A   Clear
10:56 PM 51.6 °F - 48.7 °F 90% 29.90 in 12.0 mi West 10.4 mph - N/A   Clear
11:56 PM 50.9 °F - 48.4 °F 91% 29.92 in 12.0 mi West 11.5 mph 16.1 mph N/A   Clear